Weather History for Cincinnati, OH

Change the Weather History Date:

Wednesday, January 29, 2014

  Actual Average Record
Temperature  
Mean Temperature 8 °F -  
Max Temperature 23 °F 39 °F 68 °F (1975)
Min Temperature -6 °F 23 °F -12 °F (1963)
Degree Days  
Heating Degree Days 56    
Moisture  
Dew Point -2 °F    
Average Humidity 66    
Maximum Humidity 87    
Minimum Humidity 42    
Precipitation  
Precipitation 0.00 in - - ()
Sea Level Pressure  
Sea Level Pressure 30.40 in    
Wind  
Wind Speed 3 mph (SW)    
Max Wind Speed 17 mph    
Max Gust Speed -    
Visibility 10 miles    
Events      
Averages and records for this station are not official NWS values.
T = Trace of Precipitation, MM = Missing Value Source: NWS Daily Summary

Daily Weather History Graph

Daily Weather History Graph

Search for Another Location

Airport:

Trip Planner

Search our weather history database for the weather conditions in past years. The results will help you decide how hot, cold, wet, or windy it might be!

Date:

Astronomy

Jan. 29, 2014 Rise Set
Actual Time 7:46 AM EST 5:55 PM EST
Civil Twilight 7:18 AM EST 6:23 PM EST
Nautical Twilight 6:46 AM EST 6:55 PM EST
Astronomical Twilight 6:14 AM EST 7:27 PM EST
Moon 6:22 AM EST (1/29) 4:53 PM EST (1/29)
Length of Visible Light 11h 05m
Length of Day
10h 08m
Waning Crescent, 2% of the Moon is Illuminated
Jan 29
Waning Crescent
Jan 30
New
Feb 6
First Quarter
Feb 14
Full
Feb 22
Last Quarter

Hourly Weather History & Observations

Time (EST) Temp. Windchill Dew Point Humidity Pressure Visibility Wind Dir Wind Speed Gust Speed Precip Events Conditions
12:53 AM -2.9 °F - -7.1 °F 82% 30.42 in 10.0 mi Calm Calm - N/A   Clear
1:53 AM -4.0 °F - -8.0 °F 83% 30.42 in 9.0 mi Calm Calm - N/A   Clear
2:53 AM -4.0 °F - -8.0 °F 83% 30.43 in 8.0 mi Calm Calm - N/A   Clear
3:53 AM -4.0 °F - -9.0 °F 79% 30.42 in 9.0 mi Calm Calm - N/A   Clear
4:53 AM -5.1 °F - -9.9 °F 80% 30.40 in 10.0 mi Calm Calm - N/A   Clear
5:53 AM -6.0 °F - -9.9 °F 83% 30.41 in 10.0 mi Calm Calm - N/A   Clear
6:53 AM -5.1 °F - -9.9 °F 80% 30.41 in 10.0 mi Calm Calm - N/A   Clear
7:53 AM -5.1 °F - -9.0 °F 83% 30.42 in 9.0 mi Calm Calm - N/A   Clear
8:53 AM -2.0 °F - -5.1 °F 87% 30.43 in 8.0 mi Calm Calm - N/A   Clear
9:53 AM 6.1 °F -5.6 °F -0.0 °F 76% 30.43 in 10.0 mi SSW 6.9 mph - N/A   Clear
10:53 AM 14.0 °F 2.9 °F -0.9 °F 52% 30.43 in 10.0 mi SW 8.1 mph - N/A   Clear
11:53 AM 17.1 °F 4.3 °F 1.0 °F 50% 30.43 in 10.0 mi SSW 11.5 mph - N/A   Clear
12:53 PM 19.0 °F 5.6 °F 1.0 °F 46% 30.39 in 10.0 mi West 13.8 mph - N/A   Clear
1:53 PM 21.0 °F 6.6 °F 1.0 °F 42% 30.37 in 10.0 mi West 17.3 mph - N/A   Clear
2:53 PM 21.9 °F 9.8 °F 1.9 °F 42% 30.36 in 10.0 mi WSW 12.7 mph - N/A   Clear
3:53 PM 23.0 °F 13.9 °F 3.0 °F 42% 30.36 in 10.0 mi SW 8.1 mph - N/A   Clear
4:53 PM 21.9 °F 10.4 °F 1.9 °F 42% 30.38 in 10.0 mi WSW 11.5 mph - N/A   Clear
5:53 PM 19.9 °F 10.1 °F 1.9 °F 46% 30.37 in 10.0 mi SSW 8.1 mph - N/A   Clear
6:53 PM 16.0 °F 6.3 °F 1.9 °F 54% 30.38 in 10.0 mi SSW 6.9 mph - N/A   Clear
7:53 PM 15.1 °F 6.4 °F 3.0 °F 59% 30.38 in 10.0 mi SSW 5.8 mph - N/A   Clear
8:53 PM 12.0 °F - 3.0 °F 67% 30.38 in 10.0 mi Calm Calm - N/A   Clear
9:53 PM 10.9 °F - 3.0 °F 70% 30.37 in 10.0 mi Calm Calm - N/A   Clear
10:53 PM 8.1 °F - 3.0 °F 80% 30.36 in 10.0 mi Calm Calm - N/A   Clear
11:53 PM 8.1 °F 1.4 °F 3.0 °F 80% 30.35 in 10.0 mi South 3.5 mph - N/A   Clear